Regional Weather Roundup
Issued by NWS

Home | Current Version | Previous Version | Text Only | Print | Product List | Glossary Off
Versions: 1 2 3 4 5 6 7 8 9 10 11 12 13 14 15 16 17 18 19 20 21 22 23 24 25 26 27 28 29 30 31 32 33 34 35 36 37 38 39 40 41 42 43 44 45 46 47 48 49 50

000
ASUS43 KLOT 050000
RWRIL

ILLINOIS REGIONAL WEATHER ROUNDUP
NATIONAL WEATHER SERVICE CHICAGO/ROMEOVILLE IL
700 PM CDT SAT JUL 04 2015

NOTE: "FAIR" INDICATES FEW OR NO CLOUDS BELOW 12,000 FEET WITH NO
SIGNIFICANT WEATHER AND/OR OBSTRUCTIONS TO VISIBILITY.

* THESE STATIONS ARE NOT UNDER NWS QUALITY CONTROL. THEY ALSO MAY NOT
  REPORT WEATHER SUCH AS PRECIPITATION OR FOG.

ILZ001-002-007-009-015-016-024-050100-
NORTHWEST ILLINOIS

CITY           SKY/WX    TMP DP  RH WIND       PRES   REMARKS
MOLINE         SUNNY     78  61  55 CALM      29.97S HX  80
6HR MIN TEMP:  78; 6HR MAX TEMP:  82;

STERLING*      SUNNY     79  63  57 NW3       29.98S HX  80
$$

ILZ003-004-008-010-011-017-018-050100-
NORTH CENTRAL ILLINOIS

CITY           SKY/WX    TMP DP  RH WIND       PRES   REMARKS
ROCKFORD       MOSUNNY   78  59  51 W5        30.00S
6HR MIN TEMP:  78; 6HR MAX TEMP:  82;

$$

ILZ005-006-012>014-019>023-050100-
NORTHEAST ILLINOIS

CITY           SKY/WX    TMP DP  RH WIND       PRES   REMARKS
CHICAGO-OHARE  MOSUNNY   78  56  46 SW5       29.97F
6HR MIN TEMP:  78; 6HR MAX TEMP:  81;

CHICAGO-MIDWAY SUNNY     79  59  50 E7        29.97F HX  80
6HR MIN TEMP:  79; 6HR MAX TEMP:  84;

AURORA         SUNNY     79  59  50 W3        29.99S HX  80
6HR MIN TEMP:  78; 6HR MAX TEMP:  81;

LANSING*       SUNNY     78  55  44 W3        29.98S
WAUKEGAN       SUNNY     71  56  58 SE5       29.98F
6HR MIN TEMP:  71; 6HR MAX TEMP:  77;

DUPAGE AIRPORT SUNNY     77  59  53 SW5       29.98S
6HR MIN TEMP:  77; 6HR MAX TEMP:  80;

WHEELING       SUNNY     77  56  48 E5        29.99S
6HR MIN TEMP:  77; 6HR MAX TEMP:  81;

NORTHERLY ISL    N/A     69  58  67 N2          N/A
$$

LMZ740>746-050100-
SOUTHERN LAKE MICHIGAN

STATION/POSITION SKY/WX   TEMP    WIND        PRES    VSBY  WAVE
                          AIR SEA DIR/SP/G                  HT/PER
                          (F)     (DEG/KT/KT) (MB)    (MI)  (FT/S)
HARRISON CRIB              67      90/  9/ 10   N/A
BURNHAM HARBOR             70      50/  1/  2   N/A
CALUMET HARBOR             70      70/  5/  7   N/A
BURNS HARBOR               71      70/  9/ 10 1015.9F
MICHIGAN CITY              68      30/  9/ 10   N/A
MICHIGAN CITY 6N           67 65   80/  6/  6   N/A           1
ST. JOSEPH                 69 66                N/A           0
$$

ILZ025>027-034>036-040-047-049-050-058-095>099-050100-
WEST-CENTRAL ILLINOIS

CITY           SKY/WX    TMP DP  RH WIND       PRES   REMARKS
QUINCY         SUNNY     79  60  52 CALM      29.97F HX  80
MACOMB*        SUNNY     77  65  66 CALM      30.00S
$$

ILZ028>032-037-038-041>044-048-051>054-059>061-050100-
CENTRAL ILLINOIS

CITY           SKY/WX    TMP DP  RH WIND       PRES   REMARKS
DECATUR        PTSUNNY   78  66  66 E3        29.99S HX  80
PEORIA         SUNNY     80  60  50 NE5       29.98F HX  81
6HR MIN TEMP:  78; 6HR MAX TEMP:  83;

SPRINGFIELD    SUNNY     81  64  56 NE3       29.98S HX  82
6HR MIN TEMP:  80; 6HR MAX TEMP:  84;

TAYLORVILLE    NOT AVBL
$$

ILZ033-039-045-046-055>057-062-063-050100-
EAST-CENTRAL ILLINOIS

CITY           SKY/WX    TMP DP  RH WIND       PRES   REMARKS
CHAMPAIGN      MOSUNNY   77  64  64 CALM      29.99F
MATTOON        SUNNY     77  62  59 N5        29.98S
$$

ILZ079-100>102-050100-
SOUTHWEST ILLINOIS

CITY           SKY/WX    TMP DP  RH WIND       PRES   REMARKS
CAHOKIA*       SUNNY     79  64  60 E5        29.97R HX  81
SPARTA*        MOSUNNY   79  64  60 NE6       29.98S HX  80
$$

ILZ064>066-069>071-074>076-080>082-084>086-088>090-092>094-050100-
SOUTH-CENTRAL ILLINOIS

CITY           SKY/WX    TMP DP  RH WIND       PRES   REMARKS
CARBONDALE     PTSUNNY   79  67  66 E3        29.97R HX  81
6HR MIN TEMP:  79; 6HR MAX TEMP:  83;

MT. VERNON     PTSUNNY   79  64  61 CALM      29.99R HX  81
SALEM*         MOSUNNY   80  62  53 CALM      29.99R HX  81
$$

ILZ067-068-072-073-078-083-087-091-050100-
SOUTHEAST ILLINOIS

CITY           SKY/WX    TMP DP  RH WIND       PRES   REMARKS
LAWRENCEVILLE  PTSUNNY   78  68  71 N3        29.98R HX  80
HARRISBURG*    CLOUDY    77  69  76 CALM      29.99R
$$

ABBREVIATIONS USED IN REMARKS
   TC - TEMPERATURE IN CELSIUS
  WCI - WIND CHILL INDEX
   HX - HEAT INDEX
  VSB - VISIBILITY
$$




USA.gov is the U.S. government's official web portal to all federal, state and local government web resources and services.